,,PA_Meas_PMT16A,,PR_Meas_QMR101_102,,RH_Meas_QMH101,,SR_Meas_QMS101,,TA_Meas_QMH101,,GenWind,,GenWind,
time,status,PA,status,PR,status,RH,status,SR,status,TA,status,DirAvg,status,SpdAvg,
2011-10-07, 00:00:04,VALID,919.281,VALID,0,VALID,96.9165,VALID,0.107441,VALID,18.7056,VALID,135,VALID,0.363281,
2011-10-07, 00:01:04,VALID,919.267,VALID,0,VALID,96.9546,VALID,0,VALID,18.707,VALID,135,VALID,0.63125,
2011-10-07, 00:02:04,VALID,919.256,VALID,0,VALID,97.0461,VALID,0,VALID,18.7042,VALID,135,VALID,0.781641,
2011-10-07, 00:03:04,VALID,919.268,VALID,0,VALID,97.0461,VALID,0,VALID,18.7864,VALID,135,VALID,0.748828,
2011-10-07, 00:04:04,VALID,919.244,VALID,0,VALID,97.0613,VALID,0,VALID,18.7655,VALID,135,VALID,0.708203,
2011-10-07, 00:05:04,VALID,919.228,VALID,0,VALID,97.069,VALID,0,VALID,18.8087,VALID,135,VALID,0.474609,
2011-10-07, 00:06:04,VALID,919.2,VALID,0,VALID,97.0308,VALID,0,VALID,18.707,VALID,135,VALID,0.686328,
2011-10-07, 00:07:04,VALID,919.21,VALID,0,VALID,97.0537,VALID,0,VALID,18.7084,VALID,135,VALID,0.511328,
2011-10-07, 00:08:04,VALID,919.212,VALID,0,VALID,97.0537,VALID,0,VALID,18.7098,VALID,135,VALID,0.275781,
2011-10-07, 00:09:04,VALID,919.179,VALID,0,VALID,97.0461,VALID,0,VALID,18.6485,VALID,135,VALID,0.723047,
2011-10-07, 00:10:04,VALID,919.224,VALID,0,VALID,97.0461,VALID,0,VALID,18.6499,VALID,135,VALID,0.798828,
2011-10-07, 00:11:04,VALID,919.196,VALID,0,VALID,97.0766,VALID,0,VALID,18.6304,VALID,135,VALID,0.748438,
2011-10-07, 00:12:04,VALID,919.192,VALID,0,VALID,97.1071,VALID,0,VALID,18.5691,VALID,135,VALID,0.579297,
2011-10-07, 00:13:04,VALID,919.179,VALID,0,VALID,97.0994,VALID,0,VALID,18.6513,VALID,135,VALID,0.582031,
2011-10-07, 00:14:04,VALID,919.181,VALID,0,VALID,97.0918,VALID,0,VALID,18.5705,VALID,135,VALID,0.372656,
2011-10-07, 00:15:04,VALID,919.166,VALID,0,VALID,97.0842,VALID,0,VALID,18.5302,VALID,135,VALID,0.4625,
2011-10-07, 00:16:04,VALID,919.171,VALID,0,VALID,97.0994,VALID,0,VALID,18.5734,VALID,135,VALID,0.434375,
2011-10-07, 00:17:04,VALID,919.151,VALID,0,VALID,97.0994,VALID,0,VALID,18.5748,VALID,135,VALID,0.467187,
2011-10-07, 00:18:04,VALID,919.196,VALID,0,VALID,97.1223,VALID,0,VALID,18.533,VALID,135,VALID,0.548047,
2011-10-07, 00:19:04,VALID,919.192,VALID,0,VALID,97.1452,VALID,0,VALID,18.5107,VALID,135,VALID,0.615625,
2011-10-07, 00:20:04,VALID,919.188,VALID,0,VALID,97.1528,VALID,0,VALID,18.533,VALID,135,VALID,0.577344,
2011-10-07, 00:21:04,VALID,919.193,VALID,0,VALID,97.1681,VALID,0,VALID,18.5943,VALID,135,VALID,0.473047,
2011-10-07, 00:22:04,VALID,919.218,VALID,0,VALID,97.1681,VALID,0,VALID,18.572,VALID,135,VALID,0.321094,
2011-10-07, 00:23:04,VALID,919.228,VALID,0,VALID,97.1757,VALID,0,VALID,18.572,VALID,135,VALID,0.289844,
2011-10-07, 00:24:04,VALID,919.203,VALID,0,VALID,97.1909,VALID,0,VALID,18.5734,VALID,135,VALID,0.5375,
2011-10-07, 00:25:04,VALID,919.227,VALID,0,VALID,97.229,VALID,0,VALID,18.5929,VALID,135,VALID,0.634375,
2011-10-07, 00:26:04,VALID,919.232,VALID,0,VALID,97.2519,VALID,0,VALID,18.5914,VALID,135,VALID,0.49375,
2011-10-07, 00:27:04,VALID,919.23,VALID,0,VALID,97.2138,VALID,0,VALID,18.5734,VALID,135,VALID,0.372266,
2011-10-07, 00:28:04,VALID,919.204,VALID,0,VALID,97.2062,VALID,0,VALID,18.5525,VALID,135,VALID,0.294922,
2011-10-07, 00:29:04,VALID,919.208,VALID,0,VALID,97.2062,VALID,0,VALID,18.5107,VALID,135,VALID,0.275,
2011-10-07, 00:30:04,VALID,919.193,VALID,0,VALID,97.1909,VALID,0,VALID,18.533,VALID,135,VALID,0.243359,
2011-10-07, 00:31:04,VALID,919.174,VALID,0,VALID,97.1833,VALID,0,VALID,18.5344,VALID,135,VALID,0.510547,
2011-10-07, 00:32:04,VALID,919.193,VALID,0,VALID,97.1833,VALID,0,VALID,18.4926,VALID,135,VALID,0.345703,
2011-10-07, 00:33:04,VALID,919.172,VALID,0,VALID,97.2062,VALID,0,VALID,18.5525,VALID,135,VALID,0.376172,
2011-10-07, 00:34:04,VALID,919.192,VALID,0,VALID,97.1604,VALID,0,VALID,18.5344,VALID,135,VALID,0.273828,
2011-10-07, 00:35:04,VALID,919.162,VALID,0,VALID,97.1681,VALID,0,VALID,18.4731,VALID,135,VALID,0.475781,
2011-10-07, 00:36:04,VALID,919.138,VALID,0,VALID,97.2138,VALID,0,VALID,18.533,VALID,135,VALID,0.498047,
2011-10-07, 00:37:04,VALID,919.096,VALID,0,VALID,97.1909,VALID,0,VALID,18.5135,VALID,135,VALID,0.689453,
2011-10-07, 00:38:04,VALID,919.087,VALID,0,VALID,97.2138,VALID,0,VALID,18.5135,VALID,135,VALID,0.391016,
2011-10-07, 00:39:04,VALID,919.067,VALID,0,VALID,97.2062,VALID,0,VALID,18.5149,VALID,135,VALID,0.389844,
2011-10-07, 00:40:04,VALID,919.062,VALID,0,VALID,97.2138,VALID,0,VALID,18.5358,VALID,135,VALID,0.278906,
2011-10-07, 00:41:04,VALID,919.028,VALID,0,VALID,97.2062,VALID,0,VALID,18.5358,VALID,135,VALID,0.515234,
2011-10-07, 00:42:04,VALID,919.025,VALID,0,VALID,97.229,VALID,0,VALID,18.5135,VALID,135,VALID,0.610937,
2011-10-07, 00:43:04,VALID,919.016,VALID,0,VALID,97.2367,VALID,0,VALID,18.494,VALID,135,VALID,0.705859,
2011-10-07, 00:44:04,VALID,919.01,VALID,0,VALID,97.2214,VALID,0,VALID,18.4926,VALID,135,VALID,0.694141,
2011-10-07, 00:45:04,VALID,918.985,VALID,0,VALID,97.2443,VALID,0,VALID,18.533,VALID,135,VALID,0.640234,
2011-10-07, 00:46:04,VALID,918.966,VALID,0,VALID,97.2672,VALID,0,VALID,18.5121,VALID,135,VALID,0.624609,
2011-10-07, 00:47:04,VALID,918.988,VALID,0,VALID,97.2595,VALID,0,VALID,18.5525,VALID,135,VALID,0.633594,
2011-10-07, 00:48:04,VALID,918.955,VALID,0,VALID,97.2519,VALID,0,VALID,18.5511,VALID,135,VALID,0.578906,
2011-10-07, 00:49:04,VALID,918.943,VALID,0,VALID,97.2519,VALID,0,VALID,18.4912,VALID,135,VALID,0.441406,
2011-10-07, 00:50:04,VALID,918.942,VALID,0,VALID,97.2443,VALID,0,VALID,18.5525,VALID,135,VALID,0.544141,
2011-10-07, 00:51:04,VALID,918.933,VALID,0,VALID,97.2595,VALID,0,VALID,18.4926,VALID,135,VALID,0.804688,
2011-10-07, 00:52:04,VALID,918.898,VALID,0,VALID,97.2519,VALID,0,VALID,18.533,VALID,135,VALID,0.982422,
2011-10-07, 00:53:04,VALID,918.918,VALID,0,VALID,97.2748,VALID,0,VALID,18.5525,VALID,135,VALID,1.0207,
2011-10-07, 00:54:04,VALID,918.898,VALID,0,VALID,97.2824,VALID,0,VALID,18.5316,VALID,135,VALID,1.08516,
2011-10-07, 00:55:04,VALID,918.916,VALID,0,VALID,97.2748,VALID,0,VALID,18.5929,VALID,135,VALID,1.00742,
2011-10-07, 00:56:04,VALID,918.927,VALID,0,VALID,97.2748,VALID,0,VALID,18.5943,VALID,136,VALID,1.06523,
2011-10-07, 00:57:04,VALID,918.903,VALID,0,VALID,97.2824,VALID,0,VALID,18.5511,VALID,136,VALID,0.694922,
2011-10-07, 00:58:04,VALID,918.867,VALID,0,VALID,97.2519,VALID,0,VALID,18.5316,VALID,136,VALID,0.619141,
2011-10-07, 00:59:04,VALID,918.881,VALID,0,VALID,97.2595,VALID,0,VALID,18.572,VALID,136,VALID,0.644531,
2011-10-07, 01:00:04,VALID,918.867,VALID,0,VALID,97.2519,VALID,0,VALID,18.5316,VALID,138,VALID,0.839063,
2011-10-07, 01:01:04,VALID,918.859,VALID,0,VALID,97.2443,VALID,0,VALID,18.5511,VALID,145,VALID,0.658203,
2011-10-07, 01:02:04,VALID,918.84,VALID,0,VALID,97.2443,VALID,0,VALID,18.5107,VALID,145,VALID,0.417188,
2011-10-07, 01:03:04,VALID,918.858,VALID,0,VALID,97.2367,VALID,0,VALID,18.533,VALID,145,VALID,0.678906,
2011-10-07, 01:04:04,VALID,918.832,VALID,0,VALID,97.2138,VALID,0,VALID,18.5539,VALID,145,VALID,0.780859,
2011-10-07, 01:05:04,VALID,918.871,VALID,0,VALID,97.2519,VALID,0,VALID,18.533,VALID,145,VALID,0.454688,
2011-10-07, 01:06:04,VALID,918.85,VALID,0,VALID,97.2443,VALID,0,VALID,18.5344,VALID,145,VALID,0.600391,
2011-10-07, 01:07:04,VALID,918.84,VALID,0,VALID,97.2595,VALID,0,VALID,18.5149,VALID,145,VALID,0.484375,
2011-10-07, 01:08:04,VALID,918.854,VALID,0,VALID,97.2443,VALID,0,VALID,18.5149,VALID,145,VALID,0.536719,
2011-10-07, 01:09:04,VALID,918.823,VALID,0,VALID,97.2443,VALID,0,VALID,18.5149,VALID,145,VALID,0.584375,
2011-10-07, 01:10:04,VALID,918.82,VALID,0,VALID,97.2595,VALID,0,VALID,18.4745,VALID,145,VALID,0.680859,
2011-10-07, 01:11:04,VALID,918.81,VALID,0,VALID,97.2672,VALID,0,VALID,18.4745,VALID,145,VALID,0.819531,
2011-10-07, 01:12:04,VALID,918.79,VALID,0,VALID,97.2672,VALID,0,VALID,18.4954,VALID,145,VALID,0.869922,
2011-10-07, 01:13:04,VALID,918.773,VALID,0,VALID,97.2595,VALID,0,VALID,18.4954,VALID,145,VALID,0.405078,
2011-10-07, 01:14:04,VALID,918.751,VALID,0,VALID,97.2672,VALID,0,VALID,18.4355,VALID,145,VALID,0.330469,
2011-10-07, 01:15:04,VALID,918.744,VALID,0,VALID,97.2672,VALID,0,VALID,18.4564,VALID,145,VALID,0.259766,
2011-10-07, 01:16:04,VALID,918.734,VALID,0,VALID,97.2595,VALID,0,VALID,18.455,VALID,145,VALID,0.282031,
2011-10-07, 01:17:04,VALID,918.728,VALID,0,VALID,97.2595,VALID,0,VALID,18.4564,VALID,145,VALID,0.0980469,
2011-10-07, 01:18:04,VALID,918.753,VALID,0,VALID,97.2672,VALID,0,VALID,18.3728,VALID,145,VALID,0.284766,
2011-10-07, 01:19:04,VALID,918.722,VALID,0,VALID,97.2595,VALID,0,VALID,18.4355,VALID,145,VALID,0.223047,
2011-10-07, 01:20:04,VALID,918.71,VALID,0,VALID,97.2443,VALID,0,VALID,18.4564,VALID,145,VALID,0.328516,
2011-10-07, 01:21:04,VALID,918.732,VALID,0,VALID,97.2443,VALID,0,VALID,18.416,VALID,145,VALID,0.451172,
2011-10-07, 01:22:04,VALID,918.731,VALID,0,VALID,97.229,VALID,0,VALID,18.4564,VALID,145,VALID,0.418359,
2011-10-07, 01:23:04,VALID,918.723,VALID,0,VALID,97.229,VALID,0,VALID,18.4369,VALID,145,VALID,0.56875,
2011-10-07, 01:24:04,VALID,918.73,VALID,0,VALID,97.2214,VALID,0,VALID,18.4564,VALID,145,VALID,0.685938,
2011-10-07, 01:25:04,VALID,918.746,VALID,0,VALID,97.229,VALID,0,VALID,18.455,VALID,145,VALID,0.837109,
2011-10-07, 01:26:04,VALID,918.737,VALID,0,VALID,97.2138,VALID,0,VALID,18.5149,VALID,145,VALID,0.901953,
2011-10-07, 01:27:04,VALID,918.754,VALID,0,VALID,97.2062,VALID,0,VALID,18.5149,VALID,145,VALID,0.765625,
2011-10-07, 01:28:04,VALID,918.729,VALID,0,VALID,97.2062,VALID,0,VALID,18.5135,VALID,145,VALID,0.793359,
2011-10-07, 01:29:04,VALID,918.704,VALID,0,VALID,97.1833,VALID,0,VALID,18.494,VALID,153,VALID,0.834375,
2011-10-07, 01:30:04,VALID,918.682,VALID,0,VALID,97.1299,VALID,0,VALID,18.4954,VALID,153,VALID,0.501172,
2011-10-07, 01:31:04,VALID,918.656,VALID,0,VALID,97.069,VALID,0,VALID,18.494,VALID,154,VALID,0.576172,
2011-10-07, 01:32:04,VALID,918.622,VALID,0,VALID,97.0003,VALID,0,VALID,18.4745,VALID,154,VALID,0.455469,
2011-10-07, 01:33:04,VALID,918.635,VALID,0,VALID,97.008,VALID,0,VALID,18.4759,VALID,154,VALID,0.540234,
2011-10-07, 01:34:04,VALID,918.612,VALID,0,VALID,96.9698,VALID,0,VALID,18.4759,VALID,154,VALID,0.510938,
2011-10-07, 01:35:04,VALID,918.603,VALID,0,VALID,96.947,VALID,0,VALID,18.4369,VALID,154,VALID,0.514844,
2011-10-07, 01:36:04,VALID,918.62,VALID,0,VALID,96.9622,VALID,0,VALID,18.4369,VALID,154,VALID,0.515234,
2011-10-07, 01:37:04,VALID,918.582,VALID,0,VALID,96.9394,VALID,0,VALID,18.4369,VALID,154,VALID,0.541797,
2011-10-07, 01:38:04,VALID,918.543,VALID,0,VALID,96.9089,VALID,0,VALID,18.4174,VALID,154,VALID,0.66875,
2011-10-07, 01:39:04,VALID,918.564,VALID,0,VALID,96.8936,VALID,0,VALID,18.3965,VALID,154,VALID,0.612109,
2011-10-07, 01:40:04,VALID,918.511,VALID,0,VALID,96.8403,VALID,0,VALID,18.3979,VALID,153,VALID,0.537891,
2011-10-07, 01:41:04,VALID,918.491,VALID,0,VALID,96.764,VALID,0,VALID,18.377,VALID,154,VALID,0.403906,
2011-10-07, 01:42:04,VALID,918.504,VALID,0,VALID,96.6954,VALID,0,VALID,18.3979,VALID,154,VALID,0.435156,
2011-10-07, 01:43:04,VALID,918.449,VALID,0,VALID,96.5811,VALID,0,VALID,18.3784,VALID,154,VALID,0.49375,
2011-10-07, 01:44:04,VALID,918.419,VALID,0,VALID,96.4591,VALID,0,VALID,18.3575,VALID,154,VALID,0.430078,
2011-10-07, 01:45:04,VALID,918.424,VALID,0,VALID,96.3142,VALID,0,VALID,18.3589,VALID,154,VALID,0.257422,
2011-10-07, 01:46:04,VALID,918.411,VALID,0,VALID,96.177,VALID,0,VALID,18.3199,VALID,153,VALID,0.491016,
2011-10-07, 01:47:04,VALID,918.367,VALID,0,VALID,96.0627,VALID,0,VALID,18.3004,VALID,154,VALID,0.346484,
2011-10-07, 01:48:04,VALID,918.34,VALID,0,VALID,95.7577,VALID,0,VALID,18.2225,VALID,154,VALID,0.129688,
2011-10-07, 01:49:04,VALID,918.31,VALID,0,VALID,95.5062,VALID,0,VALID,18.164,VALID,154,VALID,0,
2011-10-07, 01:50:04,VALID,918.355,VALID,0,VALID,95.2546,VALID,0,VALID,18.086,VALID,153,VALID,0,
2011-10-07, 01:51:04,VALID,918.311,VALID,0,VALID,95.125,VALID,0,VALID,18.047,VALID,154,VALID,0,
2011-10-07, 01:52:04,VALID,918.324,VALID,0,VALID,95.1707,VALID,0,VALID,18.008,VALID,154,VALID,0,
2011-10-07, 01:53:04,VALID,918.325,VALID,0,VALID,95.2546,VALID,0,VALID,17.9482,VALID,154,VALID,0,
2011-10-07, 01:54:04,VALID,918.327,VALID,0,VALID,95.3842,VALID,0,VALID,17.9301,VALID,154,VALID,0,
2011-10-07, 01:55:04,VALID,918.322,VALID,0,VALID,95.4528,VALID,0,VALID,17.8911,VALID,154,VALID,0,
2011-10-07, 01:56:04,VALID,918.349,VALID,0,VALID,95.5214,VALID,0,VALID,17.8716,VALID,154,VALID,0,
2011-10-07, 01:57:04,VALID,918.377,VALID,0,VALID,95.59,VALID,0,VALID,17.8716,VALID,153,VALID,0,
2011-10-07, 01:58:04,VALID,918.36,VALID,0,VALID,95.6129,VALID,0,VALID,17.8521,VALID,154,VALID,0,
2011-10-07, 01:59:04,VALID,918.342,VALID,0,VALID,95.6434,VALID,0,VALID,17.8535,VALID,154,VALID,0.420312,
2011-10-07, 02:00:04,VALID,918.378,VALID,0,VALID,95.6586,VALID,0.107441,VALID,17.8104,VALID,154,VALID,0.586328,
2011-10-07, 02:01:04,VALID,918.345,VALID,0,VALID,95.773,VALID,0,VALID,17.8508,VALID,154,VALID,0.719531,
2011-10-07, 02:02:04,VALID,918.349,VALID,0,VALID,95.8873,VALID,0.107441,VALID,17.8702,VALID,154,VALID,0.691406,
2011-10-07, 02:03:04,VALID,918.361,VALID,0,VALID,96.0093,VALID,0,VALID,17.9092,VALID,154,VALID,0.717188,
2011-10-07, 02:04:04,VALID,918.343,VALID,0,VALID,96.0703,VALID,0,VALID,17.9314,VALID,154,VALID,0.727344,
2011-10-07, 02:05:04,VALID,918.289,VALID,0,VALID,96.0398,VALID,0,VALID,17.8897,VALID,154,VALID,0.670703,
2011-10-07, 02:06:04,VALID,918.294,VALID,0,VALID,96.0474,VALID,0,VALID,17.8702,VALID,154,VALID,0.492188,
2011-10-07, 02:07:04,VALID,918.286,VALID,0,VALID,96.1084,VALID,0,VALID,17.9119,VALID,154,VALID,0.492969,
2011-10-07, 02:08:04,VALID,918.294,VALID,0,VALID,96.1313,VALID,0,VALID,17.8911,VALID,154,VALID,0.347656,
2011-10-07, 02:09:04,VALID,918.254,VALID,0,VALID,96.2075,VALID,0,VALID,17.9106,VALID,154,VALID,0.656641,
2011-10-07, 02:10:04,VALID,918.254,VALID,0,VALID,96.3066,VALID,0,VALID,17.9301,VALID,154,VALID,0.726172,
2011-10-07, 02:11:04,VALID,918.242,VALID,0,VALID,96.4286,VALID,0,VALID,17.9691,VALID,154,VALID,0.874609,
2011-10-07, 02:12:04,VALID,918.245,VALID,0,VALID,96.4819,VALID,0,VALID,17.9704,VALID,154,VALID,0.832812,
2011-10-07, 02:13:04,VALID,918.219,VALID,0,VALID,96.4972,VALID,0,VALID,17.9106,VALID,154,VALID,0.424609,
2011-10-07, 02:14:04,VALID,918.197,VALID,0,VALID,96.5506,VALID,0,VALID,17.9106,VALID,153,VALID,0.860937,
2011-10-07, 02:15:04,VALID,918.177,VALID,0,VALID,96.5811,VALID,0,VALID,17.8911,VALID,153,VALID,0.746875,
2011-10-07, 02:16:04,VALID,918.131,VALID,0,VALID,96.6802,VALID,0,VALID,17.9314,VALID,154,VALID,0.641016,
2011-10-07, 02:17:04,VALID,918.17,VALID,0,VALID,96.7259,VALID,0,VALID,17.8911,VALID,153,VALID,0.432031,
2011-10-07, 02:18:04,VALID,918.141,VALID,0,VALID,96.7411,VALID,0,VALID,17.8925,VALID,154,VALID,0.818359,
2011-10-07, 02:19:04,VALID,918.118,VALID,0,VALID,96.8936,VALID,0.107441,VALID,17.8897,VALID,153,VALID,0.661719,
2011-10-07, 02:20:04,VALID,918.073,VALID,0,VALID,96.9241,VALID,0,VALID,17.9092,VALID,153,VALID,0.519531,
2011-10-07, 02:21:04,VALID,918.089,VALID,0,VALID,96.9394,VALID,0.107441,VALID,17.9092,VALID,154,VALID,0.542188,
2011-10-07, 02:22:04,VALID,918.043,VALID,0,VALID,96.9698,VALID,0,VALID,17.9092,VALID,154,VALID,0.494141,
2011-10-07, 02:23:04,VALID,918.05,VALID,0,VALID,97.0232,VALID,0,VALID,17.9287,VALID,154,VALID,0.620313,
2011-10-07, 02:24:04,VALID,918.035,VALID,0,VALID,96.9851,VALID,0,VALID,17.9092,VALID,154,VALID,0.445703,
2011-10-07, 02:25:04,VALID,917.993,VALID,0,VALID,96.9851,VALID,0.107441,VALID,17.8897,VALID,154,VALID,0.485547,
2011-10-07, 02:26:04,VALID,918.006,VALID,0,VALID,97.008,VALID,0.107441,VALID,17.8897,VALID,153,VALID,0.719141,
2011-10-07, 02:27:04,VALID,917.982,VALID,0,VALID,97.0232,VALID,0,VALID,17.8897,VALID,154,VALID,0.614453,
2011-10-07, 02:28:04,VALID,917.977,VALID,0,VALID,97.0461,VALID,0.107441,VALID,17.9092,VALID,154,VALID,0.606641,
2011-10-07, 02:29:04,VALID,917.96,VALID,0,VALID,97.0766,VALID,0.107441,VALID,17.9287,VALID,154,VALID,0.550781,
2011-10-07, 02:30:04,VALID,917.918,VALID,0,VALID,97.0918,VALID,0,VALID,17.9079,VALID,154,VALID,0.509375,
2011-10-07, 02:31:04,VALID,917.91,VALID,0,VALID,97.0918,VALID,0,VALID,17.9287,VALID,154,VALID,0.618359,
2011-10-07, 02:32:04,VALID,917.899,VALID,0,VALID,97.0842,VALID,0,VALID,17.9482,VALID,154,VALID,0.525781,
2011-10-07, 02:33:04,VALID,917.901,VALID,0,VALID,97.0766,VALID,0.107441,VALID,17.9482,VALID,154,VALID,0.425,
2011-10-07, 02:34:04,VALID,917.853,VALID,0,VALID,97.0842,VALID,0,VALID,17.9496,VALID,154,VALID,0.357422,
2011-10-07, 02:35:04,VALID,917.861,VALID,0,VALID,97.0613,VALID,0,VALID,17.9301,VALID,154,VALID,0.349609,
2011-10-07, 02:36:04,VALID,917.844,VALID,0,VALID,97.0308,VALID,0,VALID,17.9106,VALID,154,VALID,0.524219,
2011-10-07, 02:37:04,VALID,917.802,VALID,0,VALID,97.0461,VALID,0,VALID,17.8911,VALID,154,VALID,0.667188,
2011-10-07, 02:38:04,VALID,917.789,VALID,0,VALID,97.0232,VALID,0,VALID,17.9106,VALID,154,VALID,0.354297,
2011-10-07, 02:39:04,VALID,917.805,VALID,0,VALID,97.0156,VALID,0,VALID,17.9119,VALID,154,VALID,0.633203,
2011-10-07, 02:40:04,VALID,917.796,VALID,0,VALID,97.0385,VALID,0,VALID,17.8911,VALID,154,VALID,0.629297,
2011-10-07, 02:41:04,VALID,917.783,VALID,0,VALID,97.0385,VALID,0,VALID,17.8911,VALID,154,VALID,0.865625,
2011-10-07, 02:42:04,VALID,917.769,VALID,0,VALID,97.0461,VALID,0,VALID,17.8911,VALID,154,VALID,0.823047,
2011-10-07, 02:43:04,VALID,917.763,VALID,0,VALID,97.0613,VALID,0,VALID,17.9106,VALID,153,VALID,0.875391,
2011-10-07, 02:44:04,VALID,917.758,VALID,0,VALID,97.0842,VALID,0,VALID,17.9301,VALID,154,VALID,0.988672,
2011-10-07, 02:45:04,VALID,917.769,VALID,0,VALID,97.069,VALID,0,VALID,17.9301,VALID,154,VALID,0.608594,
2011-10-07, 02:46:04,VALID,917.74,VALID,0,VALID,97.0385,VALID,0,VALID,17.9691,VALID,154,VALID,0.524219,
2011-10-07, 02:47:04,VALID,917.712,VALID,0,VALID,97.0385,VALID,0,VALID,17.9691,VALID,154,VALID,0.860156,
2011-10-07, 02:48:04,VALID,917.719,VALID,0,VALID,97.0537,VALID,0,VALID,18.008,VALID,154,VALID,0.761719,
2011-10-07, 02:49:04,VALID,917.684,VALID,0,VALID,97.0461,VALID,0,VALID,18.0275,VALID,154,VALID,0.517578,
2011-10-07, 02:50:04,VALID,917.701,VALID,0,VALID,97.0308,VALID,0,VALID,18.008,VALID,154,VALID,0.408594,
2011-10-07, 02:51:04,VALID,917.68,VALID,0,VALID,97.0232,VALID,0,VALID,18.0067,VALID,154,VALID,0.548437,
2011-10-07, 02:52:04,VALID,917.64,VALID,0,VALID,97.0156,VALID,0,VALID,18.0275,VALID,154,VALID,0.395703,
2011-10-07, 02:53:04,VALID,917.628,VALID,0,VALID,96.9622,VALID,0,VALID,18.0275,VALID,154,VALID,0.496875,
2011-10-07, 02:54:04,VALID,917.644,VALID,0,VALID,96.9546,VALID,0,VALID,18.047,VALID,154,VALID,0.730859,
2011-10-07, 02:55:04,VALID,917.626,VALID,0,VALID,96.9775,VALID,0,VALID,18.0248,VALID,154,VALID,0.510938,
2011-10-07, 02:56:04,VALID,917.579,VALID,0,VALID,96.9165,VALID,0,VALID,18.0665,VALID,154,VALID,0.420703,
2011-10-07, 02:57:04,VALID,917.594,VALID,0,VALID,96.8707,VALID,0,VALID,18.0248,VALID,154,VALID,0.551953,
2011-10-07, 02:58:04,VALID,917.557,VALID,0,VALID,96.8174,VALID,0,VALID,18.047,VALID,154,VALID,0.307813,
2011-10-07, 02:59:04,VALID,917.558,VALID,0,VALID,96.7564,VALID,0,VALID,18.0067,VALID,154,VALID,0.370313,
2011-10-07, 03:00:04,VALID,917.512,VALID,0,VALID,96.7107,VALID,0,VALID,18.0275,VALID,154,VALID,0.319922,
2011-10-07, 03:01:04,VALID,917.522,VALID,0,VALID,96.6725,VALID,0,VALID,17.9886,VALID,154,VALID,0.660547,
2011-10-07, 03:02:04,VALID,917.523,VALID,0,VALID,96.6344,VALID,0,VALID,18.008,VALID,154,VALID,0.660156,
2011-10-07, 03:03:04,VALID,917.482,VALID,0,VALID,96.6115,VALID,0,VALID,18.047,VALID,154,VALID,0.522656,
2011-10-07, 03:04:04,VALID,917.484,VALID,0,VALID,96.5887,VALID,0,VALID,18.0262,VALID,154,VALID,0.773828,
2011-10-07, 03:05:04,VALID,917.488,VALID,0,VALID,96.5048,VALID,0,VALID,18.0665,VALID,154,VALID,0.737891,
2011-10-07, 03:06:04,VALID,917.462,VALID,0,VALID,96.3905,VALID,0,VALID,18.0665,VALID,154,VALID,0.840234,
2011-10-07, 03:07:04,VALID,917.44,VALID,0,VALID,96.36,VALID,0,VALID,18.086,VALID,154,VALID,0.715234,
2011-10-07, 03:08:04,VALID,917.426,VALID,0,VALID,96.3447,VALID,0,VALID,18.1041,VALID,154,VALID,0.946875,
2011-10-07, 03:09:04,VALID,917.404,VALID,0,VALID,96.3142,VALID,0,VALID,18.1055,VALID,154,VALID,0.466016,
2011-10-07, 03:10:04,VALID,917.407,VALID,0,VALID,96.2533,VALID,0,VALID,18.0665,VALID,154,VALID,0.535937,
2011-10-07, 03:11:04,VALID,917.383,VALID,0,VALID,96.2075,VALID,0,VALID,18.0275,VALID,154,VALID,0.594531,
2011-10-07, 03:12:04,VALID,917.373,VALID,0,VALID,96.1694,VALID,0,VALID,18.008,VALID,154,VALID,0.538281,
2011-10-07, 03:13:04,VALID,917.353,VALID,0,VALID,96.1541,VALID,0,VALID,17.9886,VALID,154,VALID,0.821094,
2011-10-07, 03:14:04,VALID,917.338,VALID,0,VALID,96.1389,VALID,0,VALID,17.9301,VALID,154,VALID,0.691797,
2011-10-07, 03:15:04,VALID,917.332,VALID,0,VALID,96.1694,VALID,0,VALID,17.8911,VALID,154,VALID,0.255078,
2011-10-07, 03:16:04,VALID,917.306,VALID,0,VALID,96.2304,VALID,0,VALID,17.8521,VALID,154,VALID,0.46875,
2011-10-07, 03:17:04,VALID,917.305,VALID,0,VALID,96.2837,VALID,0,VALID,17.8326,VALID,154,VALID,0.573828,
2011-10-07, 03:18:04,VALID,917.312,VALID,0,VALID,96.3447,VALID,0,VALID,17.7936,VALID,154,VALID,0.537891,
2011-10-07, 03:19:04,VALID,917.317,VALID,0,VALID,96.4057,VALID,0,VALID,17.7741,VALID,154,VALID,0.792188,
2011-10-07, 03:20:04,VALID,917.335,VALID,0,VALID,96.4743,VALID,0,VALID,17.7547,VALID,154,VALID,0.562891,
2011-10-07, 03:21:04,VALID,917.316,VALID,0,VALID,96.5429,VALID,0,VALID,17.7352,VALID,154,VALID,0.506641,
2011-10-07, 03:22:04,VALID,917.307,VALID,0,VALID,96.5887,VALID,0,VALID,17.7143,VALID,154,VALID,0.483984,
2011-10-07, 03:23:04,VALID,917.295,VALID,0,VALID,96.6649,VALID,0,VALID,17.7352,VALID,154,VALID,0.464063,
2011-10-07, 03:24:04,VALID,917.286,VALID,0,VALID,96.7335,VALID,0,VALID,17.7157,VALID,154,VALID,0.753906,
2011-10-07, 03:25:04,VALID,917.277,VALID,0,VALID,96.7716,VALID,0,VALID,17.7157,VALID,154,VALID,0.392969,
2011-10-07, 03:26:04,VALID,917.288,VALID,0,VALID,96.8098,VALID,0,VALID,17.7157,VALID,154,VALID,0.499609,
2011-10-07, 03:27:04,VALID,917.296,VALID,0,VALID,96.8403,VALID,0,VALID,17.7157,VALID,154,VALID,0.446094,
2011-10-07, 03:28:04,VALID,917.288,VALID,0,VALID,96.8707,VALID,0.107441,VALID,17.7157,VALID,154,VALID,0.899219,
2011-10-07, 03:29:04,VALID,917.292,VALID,0,VALID,96.8936,VALID,0,VALID,17.7379,VALID,154,VALID,0.769922,
2011-10-07, 03:30:04,VALID,917.297,VALID,0,VALID,96.8555,VALID,0,VALID,17.6767,VALID,154,VALID,0.448047,
2011-10-07, 03:31:04,VALID,917.312,VALID,0,VALID,96.886,VALID,0,VALID,17.7157,VALID,154,VALID,0.488672,
2011-10-07, 03:32:04,VALID,917.336,VALID,0,VALID,96.8936,VALID,0,VALID,17.6962,VALID,154,VALID,0.431641,
2011-10-07, 03:33:04,VALID,917.333,VALID,0,VALID,96.8479,VALID,0,VALID,17.6962,VALID,154,VALID,0.647656,
2011-10-07, 03:34:04,VALID,917.314,VALID,0,VALID,96.8555,VALID,0,VALID,17.6962,VALID,154,VALID,0.642969,
2011-10-07, 03:35:04,VALID,917.309,VALID,0,VALID,96.8098,VALID,0,VALID,17.6767,VALID,154,VALID,0.637891,
2011-10-07, 03:36:04,VALID,917.304,VALID,0,VALID,96.7488,VALID,0,VALID,17.6572,VALID,154,VALID,0.639063,
2011-10-07, 03:37:04,VALID,917.31,VALID,0,VALID,96.7488,VALID,0,VALID,17.6767,VALID,154,VALID,0.312891,
2011-10-07, 03:38:04,VALID,917.36,VALID,0,VALID,96.7335,VALID,0,VALID,17.6767,VALID,154,VALID,0.219141,
2011-10-07, 03:39:04,VALID,917.36,VALID,0,VALID,96.7107,VALID,0,VALID,17.6767,VALID,154,VALID,0.249609,
2011-10-07, 03:40:04,VALID,917.349,VALID,0,VALID,96.703,VALID,0,VALID,17.6962,VALID,154,VALID,0.565625,
2011-10-07, 03:41:04,VALID,917.345,VALID,0,VALID,96.703,VALID,0,VALID,17.7157,VALID,154,VALID,0.751562,
2011-10-07, 03:42:04,VALID,917.334,VALID,0,VALID,96.6344,VALID,0,VALID,17.7365,VALID,154,VALID,0.839063,
2011-10-07, 03:43:04,VALID,917.353,VALID,0,VALID,96.6115,VALID,0,VALID,17.756,VALID,153,VALID,0.907031,
2011-10-07, 03:44:04,VALID,917.334,VALID,0,VALID,96.5734,VALID,0,VALID,17.7547,VALID,135,VALID,0.682031,